Temperature
7 7 6 6 6 6 6 5 5 5 5 5 6 6 7 7 8 9 9 9 10 10 10 10 11 11 11 11 11 11 11 11 11 11 11 11 12 12 12 12 12 12 13
6 6 6 5 5 5 5 5 5 4 4 4 4 4 4 5 5 6 7 8 8 9 9 9 9 10 10 10 10 10 10 10 10 10 10 11 11 12 12 12 12 12 12
5 5 5 4 4 4 4 4 4 4 4 4 4 3 4 4 4 5 5 6 7 7 8 9 9 9 10 10 10 10 10 10 10 10 10 10 10 11 11 12 12 12 12
4 4 4 3 3 3 3 3 2 2 3 3 3 2 2 2 3 3 3 4 5 6 7 8 8 9 9 9 9 10 10 10 9 9 9 9 9 10 10 10 10 11 11
3 3 3 2 2 2 2 1 1 1 1 1 1 1 1 1 2 2 2 3 4 5 6 7 7 8 8 9 9 9 9 9 9 9 9 9 9 9 9 9 9 10 10
3 3 2 2 1 1 0 -0 -0 -0 -0 -0 -0 0 0 0 1 1 1 2 2 4 5 5 6 7 7 8 8 9 9 9 8 8 8 8 8 9 9 9 9 9 9
2 1 1 0 0 -0 -1 -1 -1 -1 -1 -1 -1 -1 -0 -0 -0 -0 0 0 1 2 3 4 5 6 6 6 7 8 8 8 8 8 8 8 8 8 8 8 9 9 9
1 0 -1 -1 -1 -2 -2 -2 -2 -2 -2 -2 -1 -1 -1 -1 -1 -1 -1 -1 -1 0 2 3 4 5 5 6 6 6 7 7 7 7 7 7 7 7 7 8 8 8 8
-0 -1 -2 -3 -3 -3 -3 -3 -3 -3 -3 -2 -2 -2 -1 -2 -2 -3 -3 -3 -3 -2 -0 1 3 4 4 5 5 6 6 6 6 6 6 6 6 6 6 7 7 7 7
-2 -2 -3 -3 -4 -4 -4 -4 -4 -4 -4 -4 -4 -4 -4 -4 -5 -5 -5 -4 -4 -3 -2 -0 2 2 3 4 5 5 5 6 6 6 6 6 6 6 6 6 6 6 6
-2 -3 -3 -4 -5 -5 -5 -6 -6 -6 -6 -6 -6 -6 -6 -6 -5 -5 -5 -4 -4 -3 -2 -0 1 2 3 3 4 4 4 4 5 5 5 5 5 5 5 6 6 6 6
-3 -4 -5 -5 -6 -6 -7 -7 -7 -7 -8 -7 -7 -7 -6 -6 -5 -5 -5 -4 -3 -2 -1 -0 1 1 2 2 3 3 3 3 4 4 4 4 4 4 4 5 5 5 5
-4 -5 -6 -6 -7 -8 -8 -8 -8 -9 -8 -8 -8 -7 -7 -6 -6 -6 -5 -5 -4 -3 -2 -1 -0 0 1 1 2 2 2 2 2 3 3 3 2 2 3 3 4 4 4
-5 -6 -7 -7 -8 -9 -9 -9 -9 -9 -9 -9 -9 -8 -8 -7 -7 -6 -6 -5 -5 -4 -3 -2 -2 -1 -1 -0 -0 0 0 1 1 1 1 1 1 1 1 2 2 3 3
-5 -7 -8 -9 -9 -10 -10 -10 -10 -10 -10 -9 -9 -9 -8 -8 -7 -7 -7 -6 -6 -5 -4 -4 -3 -3 -3 -2 -2 -2 -1 -1 -1 -1 -1 -1 -0 -0 0 1 1 1 2
-7 -8 -9 -10 -10 -11 -11 -11 -11 -10 -10 -10 -10 -9 -9 -9 -8 -8 -8 -7 -7 -6 -5 -5 -5 -5 -4 -4 -4 -3 -3 -3 -3 -3 -2 -2 -2 -2 -1 -1 -1 -0 0
-8 -9 -10 -11 -11 -12 -12 -11 -11 -11 -10 -10 -10 -10 -10 -10 -9 -9 -9 -8 -8 -7 -7 -7 -6 -6 -6 -6 -5 -5 -5 -5 -5 -5 -5 -4 -4 -3 -3 -2 -2 -2 -2
-9 -10 -10 -11 -12 -12 -12 -12 -11 -11 -11 -10 -10 -11 -10 -10 -10 -10 -9 -9 -9 -8 -8 -8 -8 -7 -7 -6 -7 -7 -7 -7 -7 -6 -6 -6 -6 -5 -5 -4 -4 -4 -3
-9 -10 -11 -12 -12 -12 -12 -12 -12 -11 -11 -11 -11 -11 -11 -11 -11 -10 -10 -10 -9 -9 -9 -9 -9 -9 -8 -7 -8 -8 -8 -8 -7 -7 -8 -7 -7 -7 -6 -6 -5 -5 -5
-10 -10 -11 -11 -12 -12 -12 -12 -12 -12 -12 -12 -12 -12 -12 -12 -12 -11 -11 -11 -10 -10 -9 -9 -9 -9 -9 -9 -8 -8 -8 -8 -8 -8 -8 -8 -9 -8 -8 -7 -6 -6 -6
-10 -10 -11 -12 -12 -12 -12 -13 -13 -14 -13 -13 -13 -13 -13 -13 -13 -12 -12 -12 -11 -11 -10 -10 -10 -10 -9 -9 -9 -9 -9 -9 -9 -9 -9 -9 -9 -9 -9 -9 -8 -8 -7
-10 -10 -11 -12 -12 -13 -13 -14 -14 -14 -14 -14 -14 -14 -14 -14 -14 -13 -13 -12 -12 -12 -11 -11 -11 -10 -10 -10 -9 -9 -9 -9 -9 -10 -10 -10 -10 -10 -10 -9 -9 -9 -8
-10 -11 -12 -12 -13 -13 -14 -14 -15 -15 -15 -14 -15 -15 -15 -15 -15 -14 -14 -13 -13 -12 -12 -12 -12 -12 -11 -11 -10 -10 -10 -10 -10 -10 -10 -10 -10 -10 -10 -10 -10 -9 -9
-11 -12 -12 -13 -13 -14 -14 -15 -15 -15 -15 -15 -15 -15 -15 -15 -15 -15 -15 -14 -14 -13 -13 -13 -13 -13 -12 -12 -12 -11 -11 -11 -10 -10 -10 -11 -11 -11 -11 -11 -11 -11 -10
-12 -12 -13 -13 -14 -14 -15 -15 -15 -15 -15 -15 -15 -15 -15 -15 -15 -15 -15 -15 -15 -14 -14 -14 -13 -13 -13 -12 -12 -12 -11 -11 -11 -11 -11 -11 -12 -12 -12 -12 -12 -12 -12
-12 -12 -13 -13 -14 -14 -14 -15 -15 -15 -15 -15 -15 -16 -15 -16 -16 -15 -15 -15 -15 -15 -15 -14 -14 -14 -13 -13 -13 -12 -12 -12 -12 -12 -12 -12 -13 -13 -13 -13 -13 -13 -13
Wind_Speed
13 13 12 12 12 13 13 14 15 14 12 9 8 8 9 10 10 10 18 21 22 22 14 9 7 6 6 7 6 5 5 5 3 2 3 4 5 6 6 5 5 7 9
15 15 15 14 15 16 16 17 17 16 14 9 6 4 4 5 6 6 12 19 21 21 15 15 10 7 6 7 6 5 4 4 4 3 2 3 4 3 2 3 5 6 5
14 15 14 13 14 15 16 17 17 18 16 13 7 7 5 5 7 10 13 15 21 20 17 16 14 9 7 7 7 6 7 5 4 4 4 3 5 3 3 2 1 3 4
12 13 13 14 13 13 13 14 16 17 16 13 9 9 9 7 7 8 10 15 18 18 19 17 16 11 7 7 7 7 5 6 4 3 3 3 4 3 1 2 3 2 1
13 13 13 12 12 12 12 13 15 14 14 13 11 10 9 8 9 11 13 14 15 16 18 18 16 11 8 8 8 6 6 5 5 4 3 2 1 2 2 1 2 3 3
13 12 12 13 12 12 13 14 15 13 13 13 13 12 12 14 16 16 15 15 14 15 18 19 16 12 7 6 7 7 8 6 5 4 4 4 4 3 3 2 1 0 2
12 11 13 15 15 15 15 15 15 14 14 14 15 14 14 14 15 16 16 17 15 15 18 19 17 13 7 5 5 6 7 7 6 5 4 4 3 4 4 4 3 1 1
11 11 13 15 16 17 17 16 16 15 17 17 17 15 15 14 14 16 17 17 15 16 19 20 18 14 7 5 5 4 5 5 6 5 5 4 3 3 4 4 4 3 0
10 11 13 14 15 16 16 17 18 19 20 19 18 16 17 17 18 18 18 16 17 18 19 19 19 13 6 5 4 4 4 6 5 4 4 3 2 3 3 3 4 5 4
11 12 14 17 17 17 17 18 19 21 20 20 18 17 18 18 19 18 20 20 20 20 20 19 16 12 6 6 5 5 4 6 5 4 5 3 1 1 2 3 3 4 5
14 15 16 17 17 18 19 20 20 20 21 21 20 19 18 18 18 18 20 20 19 20 19 17 13 10 7 6 7 6 5 6 5 5 5 3 2 1 1 1 3 4 4
10 11 14 16 17 19 19 20 20 20 21 20 20 19 19 19 18 19 21 21 21 19 17 14 9 5 3 3 5 7 6 6 6 6 6 4 3 3 2 1 2 2 4
14 14 15 16 17 18 20 20 20 20 20 20 19 19 19 19 19 19 20 22 22 20 16 13 10 7 6 5 6 6 7 6 6 6 6 5 4 3 3 3 3 1 1
16 17 17 17 17 18 19 19 19 18 19 18 18 18 18 19 18 18 19 20 20 20 18 15 13 12 11 11 10 10 9 8 8 8 7 6 5 5 4 4 4 3 2
17 18 18 18 17 18 17 17 17 18 18 17 16 15 15 16 17 17 18 17 18 18 18 17 16 14 12 13 13 12 12 11 10 10 9 8 9 8 7 6 4 4 3
16 17 18 18 17 17 17 17 16 17 16 16 15 15 15 15 16 15 15 16 15 15 16 16 16 16 13 18 20 14 12 11 10 9 9 9 11 12 12 11 10 9 6
15 15 16 16 15 14 15 15 15 15 16 16 16 15 15 15 15 16 15 14 14 12 12 13 14 14 16 18 16 14 9 8 8 8 8 7 8 9 7 8 10 11 13
12 12 13 14 13 12 13 13 13 14 14 15 16 16 15 15 15 15 15 13 11 10 9 9 10 11 14 16 12 11 7 7 8 8 8 8 8 8 7 7 9 9 9
8 8 9 10 12 12 12 12 12 13 14 15 16 16 14 14 14 15 14 11 11 10 9 6 7 8 12 16 13 11 6 6 7 7 7 7 7 11 11 8 8 9 8
7 8 9 9 11 12 12 10 11 12 14 15 15 15 14 13 12 14 13 11 10 11 11 10 9 9 9 15 14 12 6 5 5 6 7 9 8 10 11 7 6 7 6
8 9 9 9 10 11 11 10 10 12 14 15 14 14 14 13 11 12 11 11 10 10 11 11 11 12 14 16 17 12 5 4 4 4 4 5 8 9 10 8 6 8 7
10 10 9 10 10 10 11 11 11 13 14 14 15 14 13 13 13 12 12 11 10 9 8 8 9 9 10 14 16 18 11 4 2 1 2 4 8 9 10 9 12 12 9
9 8 9 10 9 9 10 11 13 13 15 14 14 13 14 12 12 11 10 10 9 9 7 6 7 8 8 10 17 18 16 11 2 1 1 5 9 9 9 12 13 11 7
7 8 9 10 9 9 11 10 12 14 13 13 12 12 10 11 11 11 11 10 10 10 10 9 8 7 7 7 7 7 7 8 5 3 3 5 8 8 9 9 8 7 6
8 8 8 8 9 10 11 12 12 12 11 11 11 11 10 9 8 10 9 11 8 12 11 8 8 8 7 11 15 11 5 2 1 3 3 2 3 4 4 4 5 5 5
7 8 8 10 10 10 11 11 11 11 10 12 11 10 8 7 8 7 8 14 15 18 18 17 14 11 14 16 17 18 14 7 4 5 4 3 3 3 2 3 3 3 3
Wind_Direction
6 2 359 354 354 355 354 352 349 345 343 343 349 354 355 350 346 343 341 339 337 333 319 291 261 242 234 233 223 212 214 218 204 216 281 286 264 247 241 232 221 213 207
8 3 358 355 355 355 354 352 347 338 332 325 318 317 318 316 320 321 335 337 335 328 325 308 279 244 227 224 214 195 186 203 186 176 206 294 316 302 277 239 224 224 213
5 359 358 355 356 359 356 353 346 342 335 328 322 323 319 319 341 344 340 335 331 326 319 313 293 257 220 211 206 191 177 190 202 184 172 193 234 293 321 328 270 238 215
1 355 356 357 358 355 353 349 346 343 340 338 341 342 347 340 332 330 326 327 325 323 320 315 304 269 227 205 203 192 178 165 179 185 185 189 179 189 282 338 1 9 168
354 350 355 355 352 349 348 344 342 340 342 348 350 347 343 334 329 329 326 324 322 318 317 314 309 283 242 207 192 178 173 169 168 169 163 159 146 144 160 205 348 14 15
349 350 356 354 349 346 346 345 344 344 350 355 354 349 343 338 335 332 327 324 319 315 313 314 308 294 260 221 195 178 171 170 165 164 161 161 160 172 156 169 191 200 341
344 353 358 353 348 346 347 347 347 350 357 357 355 347 345 340 335 332 327 322 317 313 311 313 305 295 264 230 204 173 162 161 162 166 168 167 172 156 149 150 161 177 328
348 359 356 351 347 345 346 347 350 353 355 355 351 346 348 344 337 332 326 318 313 308 306 306 300 290 260 210 194 169 154 145 150 163 161 161 175 165 159 156 147 140 16
347 354 353 350 346 345 347 349 353 355 354 351 347 345 346 341 335 330 324 319 313 308 302 298 294 282 236 177 159 142 133 124 116 118 129 148 171 172 171 157 151 150 172
351 355 357 355 352 352 354 356 359 355 350 348 346 344 342 338 333 328 325 319 313 307 302 294 286 269 218 159 140 123 117 107 102 98 88 79 75 141 169 176 173 162 162
353 355 356 355 354 356 358 356 355 353 349 346 344 343 341 336 333 333 330 324 317 311 306 299 286 261 223 177 149 135 124 114 105 97 89 67 42 37 38 161 172 177 165
349 352 354 355 355 355 354 353 353 350 347 344 343 343 342 338 338 342 342 338 331 323 318 315 300 272 237 181 150 142 134 126 112 99 90 67 62 56 33 72 137 174 182
355 356 356 354 354 355 353 350 350 348 344 344 344 345 344 341 344 348 350 350 347 344 342 348 4 17 32 52 69 89 94 95 97 97 96 87 92 85 66 66 69 68 154
354 355 353 352 354 356 352 347 345 342 341 341 343 345 345 345 348 350 352 355 356 358 1 12 23 29 35 43 53 61 64 65 66 71 77 85 105 111 95 71 52 50 61
353 354 352 350 352 353 348 345 340 338 338 338 337 339 342 343 346 349 351 355 0 4 8 16 25 32 38 44 49 49 50 46 45 44 45 51 68 92 91 83 60 53 54
351 352 351 349 350 349 344 341 339 338 339 339 338 339 343 345 345 346 349 352 358 4 10 16 20 26 36 49 54 57 52 48 43 37 32 37 39 42 49 66 69 69 64
351 351 349 347 344 341 338 336 336 337 341 342 341 341 344 346 347 348 349 350 352 358 7 13 16 15 18 36 48 60 66 65 58 48 42 40 37 39 26 41 58 60 65
354 354 349 343 336 332 333 332 334 339 342 344 344 342 344 345 347 349 350 346 345 350 358 7 10 6 4 19 40 57 68 76 70 60 50 42 28 39 42 59 65 58 54
2 354 345 333 329 330 330 330 335 341 344 345 343 342 342 345 350 349 348 346 347 350 346 351 359 1 0 15 40 53 49 65 66 60 54 46 26 42 55 62 69 61 44
2 351 340 331 333 333 333 330 335 343 344 342 339 340 342 342 350 351 346 346 351 357 1 7 11 8 5 11 28 44 39 53 62 47 29 32 39 53 59 51 61 69 53
357 345 334 328 327 330 335 334 336 342 341 340 340 341 343 341 349 348 347 345 350 356 3 10 14 15 13 9 10 30 52 57 75 56 18 4 32 48 54 55 56 78 77
351 343 337 333 327 329 337 340 341 339 340 340 341 340 343 348 351 343 345 347 349 347 350 358 4 4 1 359 356 7 21 51 81 69 358 15 48 49 50 59 61 62 65
341 334 330 328 329 330 339 340 340 340 342 341 341 341 348 348 348 344 345 346 351 347 345 352 356 353 352 348 352 355 358 8 34 227 135 75 67 58 47 58 56 53 52
337 332 335 334 331 333 342 337 337 342 341 341 340 344 350 348 345 349 351 351 352 352 2 359 351 341 341 338 337 338 340 350 14 41 38 59 78 72 65 58 51 46 62
334 335 329 324 328 333 334 335 337 336 336 337 337 338 346 339 338 343 345 349 344 354 359 353 349 346 338 343 354 356 337 317 11 86 60 53 66 73 73 70 64 59 62
328 326 327 334 334 330 327 326 328 329 330 340 337 334 337 336 337 331 337 344 349 352 355 353 353 350 350 356 3 7 8 11 74 85 64 65 76 87 84 77 65 62 80
Height
1555 1551 1547 1542 1537 1532 1527 1522 1517 1512 1507 1502 1496 1492 1489 1487 1484 1482 1479 1477 1475 1472 1469 1468 1468 1467 1466 1464 1464 1463 1463 1463 1463 1462 1462 1462 1462 1462 1463 1464 1466 1468 1470
1555 1551 1547 1542 1538 1533 1528 1522 1517 1512 1507 1502 1496 1492 1488 1485 1481 1477 1473 1471 1467 1465 1462 1460 1459 1459 1459 1458 1457 1457 1457 1457 1458 1457 1457 1456 1457 1457 1458 1458 1460 1462 1463
1557 1553 1548 1543 1538 1533 1528 1522 1516 1511 1505 1499 1493 1488 1483 1478 1474 1469 1466 1463 1460 1457 1455 1453 1451 1450 1451 1450 1450 1450 1450 1451 1452 1452 1453 1453 1452 1452 1453 1453 1454 1456 1457
1559 1554 1549 1543 1538 1532 1527 1520 1513 1507 1502 1496 1491 1485 1480 1474 1469 1466 1461 1458 1454 1450 1447 1445 1443 1442 1443 1443 1443 1443 1444 1445 1446 1447 1448 1449 1449 1450 1449 1449 1450 1451 1453
1559 1554 1548 1543 1537 1530 1523 1516 1509 1504 1498 1493 1488 1483 1477 1472 1466 1461 1456 1451 1447 1443 1440 1437 1435 1434 1435 1436 1436 1436 1437 1438 1440 1441 1442 1444 1445 1445 1446 1446 1447 1448 1449
1558 1553 1548 1541 1535 1528 1520 1513 1506 1500 1495 1489 1484 1478 1472 1466 1460 1455 1449 1444 1439 1436 1432 1430 1428 1427 1427 1428 1429 1429 1430 1432 1434 1435 1437 1439 1440 1441 1442 1444 1445 1446 1448
1557 1551 1545 1538 1531 1524 1517 1510 1503 1497 1490 1484 1479 1473 1468 1461 1455 1450 1443 1437 1431 1427 1424 1422 1420 1419 1419 1420 1422 1423 1424 1425 1427 1429 1431 1434 1436 1437 1439 1441 1442 1444 1446
1556 1550 1543 1536 1529 1522 1514 1507 1500 1493 1486 1479 1474 1469 1463 1457 1451 1445 1439 1432 1426 1420 1417 1414 1413 1412 1411 1413 1415 1417 1418 1420 1422 1424 1426 1429 1432 1434 1435 1437 1439 1440 1443
1554 1547 1541 1534 1527 1520 1513 1506 1498 1490 1483 1477 1470 1465 1459 1453 1447 1440 1434 1427 1420 1414 1409 1407 1405 1405 1406 1407 1409 1411 1413 1415 1417 1419 1422 1424 1427 1429 1431 1433 1435 1438 1439
1550 1543 1537 1530 1524 1518 1511 1504 1496 1489 1482 1475 1469 1463 1457 1451 1445 1438 1431 1423 1416 1409 1403 1400 1398 1398 1399 1401 1403 1405 1408 1410 1412 1414 1417 1420 1423 1425 1427 1429 1431 1433 1436
1548 1542 1535 1529 1522 1516 1508 1501 1494 1487 1480 1474 1468 1461 1455 1449 1444 1437 1429 1420 1412 1405 1399 1395 1393 1393 1394 1396 1397 1400 1403 1406 1408 1410 1413 1415 1418 1420 1423 1425 1427 1429 1431
1549 1542 1534 1527 1520 1513 1506 1499 1493 1486 1480 1474 1467 1461 1454 1449 1442 1435 1427 1418 1410 1402 1396 1391 1389 1388 1390 1391 1392 1394 1398 1401 1404 1405 1407 1410 1413 1415 1418 1420 1422 1424 1426
1544 1538 1532 1526 1519 1512 1505 1499 1492 1486 1480 1473 1466 1460 1454 1448 1441 1434 1427 1419 1410 1402 1395 1391 1387 1387 1387 1387 1388 1391 1393 1396 1399 1401 1402 1405 1408 1410 1413 1414 1416 1418 1421
1543 1537 1532 1526 1519 1512 1505 1498 1492 1486 1480 1473 1466 1460 1453 1447 1442 1435 1428 1421 1413 1405 1398 1393 1389 1387 1386 1385 1386 1388 1390 1392 1394 1396 1398 1401 1403 1406 1408 1409 1410 1412 1415
1543 1537 1532 1525 1519 1511 1504 1498 1492 1486 1480 1473 1466 1460 1453 1448 1442 1436 1430 1423 1417 1410 1403 1398 1394 1391 1389 1387 1387 1387 1389 1391 1392 1393 1395 1398 1400 1402 1403 1405 1406 1408 1410
1542 1537 1531 1525 1518 1511 1505 1498 1492 1486 1480 1473 1466 1460 1453 1447 1441 1436 1431 1425 1420 1414 1409 1403 1399 1396 1394 1392 1390 1390 1391 1391 1392 1393 1394 1396 1398 1399 1400 1401 1402 1404 1406
1541 1536 1531 1525 1518 1512 1506 1499 1493 1486 1480 1474 1467 1460 1454 1448 1442 1437 1432 1426 1422 1417 1412 1408 1404 1401 1399 1397 1395 1393 1393 1394 1394 1395 1395 1396 1397 1398 1398 1399 1400 1401 1403
1540 1535 1530 1524 1518 1512 1506 1500 1493 1486 1480 1474 1467 1461 1455 1449 1444 1438 1433 1428 1423 1419 1415 1411 1407 1404 1402 1400 1398 1397 1396 1396 1396 1396 1397 1398 1398 1398 1398 1399 1399 1401 1402
1540 1535 1529 1523 1517 1511 1505 1499 1492 1485 1479 1473 1467 1461 1456 1450 1445 1439 1434 1430 1425 1420 1416 1413 1410 1407 1405 1403 1401 1399 1398 1398 1398 1399 1399 1398 1398 1398 1398 1399 1399 1400 1401
1538 1533 1527 1522 1516 1510 1504 1497 1491 1484 1478 1472 1467 1461 1456 1451 1445 1440 1436 1431 1427 1422 1418 1415 1412 1409 1407 1406 1404 1402 1401 1401 1401 1401 1401 1400 1399 1398 1397 1398 1399 1400 1401
1536 1530 1525 1520 1515 1509 1503 1496 1490 1484 1478 1472 1466 1461 1455 1450 1446 1441 1436 1431 1427 1423 1420 1416 1413 1411 1409 1408 1407 1405 1403 1403 1403 1402 1402 1401 1400 1399 1398 1398 1399 1399 1401
1533 1528 1523 1519 1513 1507 1501 1495 1489 1484 1477 1471 1465 1460 1455 1450 1445 1440 1435 1431 1428 1424 1420 1417 1415 1412 1411 1409 1407 1406 1405 1404 1403 1403 1402 1401 1401 1400 1399 1399 1399 1399 1400
1531 1526 1522 1517 1512 1506 1500 1494 1489 1483 1477 1471 1465 1460 1456 1451 1445 1440 1435 1432 1428 1425 1421 1418 1415 1413 1410 1409 1407 1406 1404 1403 1403 1402 1402 1402 1401 1401 1400 1400 1400 1400 1401
1529 1524 1519 1514 1509 1504 1499 1494 1489 1483 1477 1471 1466 1461 1456 1451 1446 1442 1437 1434 1430 1426 1423 1420 1417 1414 1411 1409 1407 1405 1404 1403 1402 1401 1401 1402 1402 1401 1401 1401 1401 1401 1401
1528 1523 1518 1512 1508 1503 1498 1494 1488 1483 1477 1472 1466 1462 1457 1452 1447 1443 1439 1436 1432 1429 1425 1421 1418 1415 1412 1410 1408 1405 1403 1401 1401 1400 1400 1401 1401 1401 1401 1401 1401 1401 1401
1526 1521 1516 1511 1507 1502 1498 1493 1488 1483 1477 1472 1466 1461 1457 1452 1447 1443 1439 1435 1433 1429 1425 1421 1418 1415 1413 1409 1406 1404 1401 1400 1399 1399 1400 1400 1400 1401 1401 1401 1401 1401 1400